AirNav   Air Wisconsin Up To $57,000 Bonus
 
 436 users online  

KUYF Madison County Airport
London, Ohio, USA

GOING TO LONDON?


FAA INFORMATION EFFECTIVE 10 OCTOBER 2019

Location

FAA Identifier: UYF
Lat/Long: 39-55-57.8000N 083-27-43.2000W
39-55.963333N 083-27.720000W
39.9327222,-83.4620000
(estimated)
Elevation: 1081.6 ft. / 329.7 m (surveyed)
Variation: 06W (2000)
From city: 3 miles N of LONDON, OH
Time zone: UTC -4 (UTC -5 during Standard Time)
Zip code: 43140

Airport Operations

Airport use: Open to the public
Control tower: no
ARTCC: INDIANAPOLIS CENTER
FSS: DAYTON FLIGHT SERVICE STATION
NOTAMs facility: DAY (NOTAM-D service available)
Attendance: MON-FRI 0800-1600, ALL SAT-SUN 0900-1700
Wind indicator: lighted
Segmented circle: no
Lights: ACTVT MIRL RWY 09/27 & REIL RWYS 09 & 27 - CTAF
Beacon: white-green (lighted land airport)
Operates sunset to sunrise.

Airport Communications

CTAF/UNICOM: 123.0
WX AWOS-3PT: 120.85 (740-852-2844)
COLUMBUS APPROACH: 118.85
COLUMBUS DEPARTURE: 118.85
CLASS C: 118.85
IC: 118.85
WX AWOS-3 at TZR (15 nm E): 135.925 (614-878-1722)
WX AWOS-3 at I74 (18 nm NW): 118.325 (937-484-5863)
WX AWOS-3 at MRT (18 nm N): 119.275 (937-644-2967)
WX AWOS-3PT at SGH (18 nm W): 134.975
WX ASOS at OSU (20 nm NE): PHONE 614-451-2465

Nearby radio navigation aids

VOR radial/distance  VOR name  Freq  Var
SGHr076/18.6SPRINGFIELD VOR/DME113.2004W
XUBr322/(33.0)YELLOW BUD VOR112.5005W
MXQr031/34.0MIDWEST VOR/DME112.9004W
RODr134/34.1ROSEWOOD VORTAC117.5005W

 
NDB name  Hdg/Dist  Freq  Var  ID
BOUTN305/13.723005WBU -... ..-
FULER240/14.851505WOS --- ...
CLARK COUNTY080/15.034104WCCJ -.-. -.-. .---
COURT HOUSE357/20.241406WCSS -.-. ... ...

Airport Services

Fuel available: 100LL JET-A
24 HR SELF SVC FUEL AFTER HRS.
Parking: tiedowns
Airframe service: MAJOR
Powerplant service: MAJOR
Bottled oxygen: NONE

Runway Information

Runway 9/27

Dimensions: 4001 x 75 ft. / 1220 x 23 m
Surface: asphalt, in fair condition
Weight bearing capacity: 
Single wheel: 30.0
Double wheel: 40.0
Runway edge lights: medium intensity
RUNWAY 9  RUNWAY 27
Latitude: 39-55.943358N39-55.982148N
Longitude: 083-28.146760W083-27.292362W
Elevation: 1081.5 ft.1051.0 ft.
Traffic pattern: leftleft
Runway heading: 093 magnetic, 087 true273 magnetic, 267 true
Markings: nonprecision, in good conditionnonprecision, in good condition
Visual slope indicator: 4-light PAPI on left (3.00 degrees glide path)4-light PAPI on left (3.00 degrees glide path)
Runway end identifier lights: yesyes
Touchdown point: yes, no lightsyes, no lights
Obstructions: 8 ft. crops, 201 ft. from runway, 195 ft. right of centerline
RWY 09 CROPS 200 FT FM RWY 09 EXTENDING TO RWY 09 185 FT R
4 ft. crops, 201 ft. from runway, 160 ft. left of centerline
RWY 27 CROPS 200 FT FM RWY 27 EXTENDING TO RWY 27 160 FT L

Airport Ownership and Management from official FAA records

Ownership: Publicly-owned
Owner: MADISON COUNTY AIRPORT AUTH
1281 US RT 40 SW
LONDON, OH 43140
Phone 740-852-5040
Manager: JOHN DUHL
1281 ST RT 40 SW
LONDON, OH 43140
Phone 740-852-5040

Airport Operational Statistics

Aircraft based on the field: 38
Single engine airplanes: 34
Multi engine airplanes: 2
Helicopters: 2
    
Aircraft operations: avg 113/day *
51% local general aviation
44% transient general aviation
5% military
<1% air taxi
* for 12-month period ending 26 May 2017

Additional Remarks

FOR CD CTC COLUMBUS APCH AT 614-338-8537

Instrument Procedures

NOTE: All procedures below are presented as PDF files. If you need a reader for these files, you should download the free Adobe Reader.

NOT FOR NAVIGATION. Please procure official charts for flight.
FAA instrument procedures published for use from 10 October 2019 at 0901Z to 17 November 2019 at 0900Z.

 
IAPs - Instrument Approach Procedures
RNAV (GPS) RWY 09   download (209KB)
RNAV (GPS) RWY 27   download (202KB)
NOTE: Special Take-Off Minimums/Departure Procedures apply   download (164KB)

Other nearby airports with instrument procedures:

KTZR - Bolton Field Airport (15 nm E)
I74 - Grimes Field Airport (18 nm NW)
KMRT - Union County Airport (18 nm N)
KSGH - Springfield-Beckley Municipal Airport (18 nm W)
KOSU - Ohio State University Airport (20 nm NE)
 
Loc | Ops | Rwys | IFR | FBO | Links
Com | Nav | Svcs | Stats | Notes
Area around KUYF (Madison County Airport)
 
Road maps at: MapQuest Bing Google
 
Aerial photo
WARNING: Photo may not be current or correct
Aerial photo of KUYF (Madison County Airport)
Do you have a better or more recent aerial photo of Madison County Airport that you would like to share? If so, please send us your photo.

 
Sectional chart

 
Airport distance calculator
Flying to Madison County Airport? Find the distance to fly.

From to KUYF

Sunrise and sunset
Times for 15-Oct-2019
 Local
(UTC-4)
 Zulu
(UTC)
Morning civil twilight07:1811:18
Sunrise07:4511:45
Sunset18:5422:54
Evening civil twilight19:2123:21

Current date and time
Zulu (UTC)  15-Oct-2019 05:10:39
Local (UTC-4)  15-Oct-2019 01:10:39
 
METAR
KUYF 150455Z AUTO 00000KT 10SM CLR 03/02 A3012 RMK AO2
KTZR 
15nm E 
150455Z AUTO 00000KT 10SM CLR 02/01 A3013 RMK AO2 T00240010 PWINO TSNO
KSGH 
18nm SW 
150456Z AUTO 10003KT 10SM CLR 03/03 A3012 RMK AO2 SLP204 T00330028
KMRT 
18nm N 
150456Z AUTO 00000KT 10SM CLR 03/02 A3012 RMK AO2 T00330019
KOSU 
20nm NE 
150453Z AUTO 00000KT 10SM CLR 05/01 A3012 RMK AO2 SLP201 T00500011 401720039
TAF
KLCK 
26nm E 
142209Z 1422/1518 28010KT P6SM SKC FM150000 VRB03KT P6SM SKC FM151400 15010KT P6SM SCT250 FM151700 17012G20KT P6SM SCT200
KCMH 
27nm E 
142209Z 1422/1518 28010KT P6SM SKC FM150000 VRB03KT P6SM SKC FM151400 15010KT P6SM SCT250 FM151700 17012G20KT P6SM SCT200
KFFO 
27nm W 
150300Z 1503/1609 VRB06KT 9999 SKC QNH3005INS BECMG 1516/1517 17012G18KT 9999 FEW250 QNH2990INS TEMPO 1518/1522 17015G25KT BECMG 1522/1523 21010G15KT 9999 BKN035 QNH2980INS BECMG 1603/1604 21010G15KT 8000 -SHRA OVC025 QNH2978INS BECMG 1605/1606 21006KT 4800 SHRA SCT005 BKN010 QNH2973INS TEMPO 1606/1608 BKN005 BKN010 BECMG 1608/1609 28015G25KT 8000 -SHRA SCT015 BKN025 QNH2977INS TX23/1520Z TN03/1511Z
NOTAMs
Click for the latest NOTAMs
NOTAMs are issued by the DoD/FAA and will open in a separate window not controlled by AirNav.

 

 
 

FBO, Fuel Providers, and Aircraft Ground Support

  
 Business Name 
 
 Contact 
 
 Services / Description 
 
Fuel Prices
 
Comments
  
 Madison County Airport
740-852-5040
[web site]
[email]
Airport management, Aviation fuel, Aircraft parking (ramp or tiedown), Hangar leasing / sales, ...

More info about Madison County Airport
EPIC
100LL Jet A
AS $4.74 $3.55 
 Updated 08-Oct-2019
 
   3 read write
AS=Assisted/Self Service
Update Fuel Prices
 

Would you like to see your business listed on this page?

 If your business provides an interesting product or service to pilots, flight crews, aircraft, or users of the Madison County Airport, you should consider listing it here.  To start the listing process, click on the button below
 
Add a business
 

Other Pages about Madison County Airport

co.madison.oh.us/airport
 
Update a link
 
Copyright © AirNav, LLC. All rights reserved. Privacy Policy  Contact